Weather History for Taos, NM

Change the Weather History Date:

Monday, November 4, 2013

  Actual Average Record
Temperature  
Mean Temperature 39 °F -  
Max Temperature 55 °F 51 °F 66 °F (2007)
Min Temperature 23 °F 23 °F 17 °F (1999)
Degree Days  
Heating Degree Days 26    
Moisture  
Dew Point 24 °F    
Average Humidity 57    
Maximum Humidity 93    
Minimum Humidity 24    
Precipitation  
Precipitation 0.36 in - - ()
Sea Level Pressure  
Sea Level Pressure 29.96 in    
Wind  
Wind Speed 8 mph (SSE)    
Max Wind Speed 25 mph    
Max Gust Speed 37 mph    
Visibility 10 miles    
Events Thunderstorm    
Averages and records for this station are not official NWS values.
T = Trace of Precipitation, MM = Missing Value Source: NWS Daily Summary

Daily Weather History Graph

Daily Weather History Graph

Search for Another Location

Airport:

Trip Planner

Search our weather history database for the weather conditions in past years. The results will help you decide how hot, cold, wet, or windy it might be!

Date:

Astronomy

Nov. 04, 2013 Rise Set
Actual Time 6:29 AM MST 5:02 PM MST
Civil Twilight 6:02 AM MST 5:29 PM MST
Nautical Twilight 5:31 AM MST 6:00 PM MST
Astronomical Twilight 5:01 AM MST 6:30 PM MST
Moon 7:40 AM MST (11/4) 6:11 PM MST (11/4)
Length of Visible Light 11h 27m
Length of Day
10h 33m
New Moon, 2% of the Moon is Illuminated
Nov 4
New Moon
Nov 9
First Quarter
Nov 17
Full
Nov 25
Last Quarter
Dec 2
New

Hourly Weather History & Observations

Time (MST) Temp. Windchill Dew Point Humidity Pressure Visibility Wind Dir Wind Speed Gust Speed Precip Events Conditions
12:15 AM 35.6 °F 30.7 °F 24.8 °F 65% 29.93 in 10.0 mi East 5.8 mph - N/A   Clear
12:35 AM 33.8 °F 28.6 °F 24.8 °F 70% 29.93 in 10.0 mi SE 5.8 mph - N/A   Clear
12:55 AM 33.8 °F 29.6 °F 23.0 °F 65% 29.94 in 10.0 mi SE 4.6 mph - N/A   Clear
1:15 AM 32.0 °F 28.7 °F 23.0 °F 69% 29.94 in 10.0 mi SSE 3.5 mph - N/A   Clear
1:35 AM 30.2 °F 24.3 °F 21.2 °F 69% 29.95 in 10.0 mi SE 5.8 mph - N/A   Clear
1:55 AM 35.6 °F 31.7 °F 23.0 °F 60% 29.95 in 10.0 mi ESE 4.6 mph - N/A   Clear
2:15 AM 35.6 °F 32.8 °F 21.2 °F 56% 29.95 in 10.0 mi SSE 3.5 mph - N/A   Clear
2:35 AM 33.8 °F - 21.2 °F 60% 29.95 in 10.0 mi Calm Calm - N/A   Clear
2:55 AM 30.2 °F 24.3 °F 21.2 °F 69% 29.95 in 10.0 mi ENE 5.8 mph - N/A   Clear
3:15 AM 30.2 °F 26.7 °F 21.2 °F 69% 29.95 in 10.0 mi ENE 3.5 mph - N/A   Clear
3:35 AM 30.2 °F 24.3 °F 21.2 °F 69% 29.94 in 10.0 mi ENE 5.8 mph - N/A   Clear
3:55 AM 30.2 °F 26.7 °F 21.2 °F 69% 29.94 in 10.0 mi SE 3.5 mph - N/A   Clear
4:15 AM 26.6 °F - 19.4 °F 74% 29.94 in 10.0 mi Calm Calm - N/A   Clear
4:35 AM 26.6 °F 19.1 °F 19.4 °F 74% 29.95 in 10.0 mi North 6.9 mph - N/A   Clear
4:55 AM 26.6 °F 20.0 °F 19.4 °F 74% 29.95 in 10.0 mi NNE 5.8 mph - N/A   Clear
5:15 AM 26.6 °F - 19.4 °F 74% 29.96 in 10.0 mi Calm Calm - N/A   Clear
5:35 AM 24.8 °F 19.1 °F 17.6 °F 74% 29.97 in 10.0 mi SE 4.6 mph - N/A   Clear
5:55 AM 26.6 °F 21.2 °F 19.4 °F 74% 29.97 in 10.0 mi East 4.6 mph - N/A   Clear
6:15 AM 24.8 °F - 19.4 °F 80% 29.97 in 10.0 mi Calm Calm - N/A   Clear
6:35 AM 24.8 °F 20.5 °F 17.6 °F 74% 29.98 in 10.0 mi ENE 3.5 mph - N/A   Clear
6:55 AM 23.0 °F 17.0 °F 17.6 °F 80% 29.98 in 10.0 mi North 4.6 mph - N/A   Clear
7:15 AM 26.6 °F - 21.2 °F 80% 30.00 in 10.0 mi Calm Calm - N/A   Clear
7:35 AM 30.2 °F - 23.0 °F 75% 30.01 in 10.0 mi Calm Calm - N/A   Clear
7:55 AM 33.8 °F 30.8 °F 24.8 °F 70% 30.02 in 10.0 mi SSE 3.5 mph - N/A   Clear
8:15 AM 39.2 °F 37.0 °F 26.6 °F 61% 30.02 in 10.0 mi SE 3.5 mph - N/A   Clear
8:35 AM 42.8 °F 38.6 °F 26.6 °F 53% 30.02 in 10.0 mi SE 6.9 mph - N/A   Clear
8:55 AM 46.4 °F 42.4 °F 24.8 °F 43% 30.02 in 10.0 mi SE 8.1 mph - N/A   Clear
9:15 AM 46.4 °F 41.9 °F 23.0 °F 40% 30.02 in 10.0 mi SE 9.2 mph - N/A   Clear
9:35 AM 48.2 °F - 21.2 °F 34% 30.01 in 10.0 mi SE 10.4 mph - N/A   Clear
9:55 AM 51.8 °F - 19.4 °F 28% 30.01 in 10.0 mi SE 9.2 mph - N/A   Clear
10:15 AM 51.8 °F - 19.4 °F 28% 30.01 in 10.0 mi SSW 4.6 mph - N/A   Clear
10:35 AM 51.8 °F - 17.6 °F 26% 30.00 in 10.0 mi WNW 3.5 mph - N/A   Clear
10:55 AM 53.6 °F - 17.6 °F 24% 30.00 in 10.0 mi SW 15.0 mph 20.7 mph N/A   Clear
11:15 AM 53.6 °F - 19.4 °F 26% 29.99 in 10.0 mi SW 16.1 mph 21.9 mph N/A   Clear
11:35 AM 53.6 °F - 19.4 °F 26% 29.98 in 10.0 mi SW 21.9 mph - N/A   Clear
11:55 AM 53.6 °F - 19.4 °F 26% 29.98 in 10.0 mi SW 17.3 mph 21.9 mph N/A   Clear
12:15 PM 53.6 °F - 19.4 °F 26% 29.96 in 10.0 mi WSW 13.8 mph - N/A   Clear
12:35 PM 55.4 °F - 21.2 °F 26% 29.95 in 10.0 mi SW 18.4 mph 25.3 mph N/A   Clear
12:55 PM 55.4 °F - 19.4 °F 25% 29.94 in 10.0 mi SW 13.8 mph 26.5 mph N/A   Clear
1:15 PM 55.4 °F - 19.4 °F 25% 29.93 in 10.0 mi SW 18.4 mph 24.2 mph N/A   Clear
1:35 PM 55.4 °F - 19.4 °F 25% 29.93 in 10.0 mi SSW 19.6 mph 27.6 mph N/A   Clear
1:55 PM 55.4 °F - 19.4 °F 25% 29.93 in 10.0 mi WSW 20.7 mph 24.2 mph N/A   Clear
2:15 PM 55.4 °F - 19.4 °F 25% 29.92 in 10.0 mi SW 20.7 mph 29.9 mph N/A   Clear
2:35 PM 55.4 °F - 19.4 °F 25% 29.91 in 10.0 mi SW 25.3 mph 29.9 mph N/A   Clear
2:55 PM 55.4 °F - 21.2 °F 26% 29.91 in 10.0 mi WSW 20.7 mph 29.9 mph N/A   Clear
3:15 PM 55.4 °F - 23.0 °F 29% 29.91 in 10.0 mi WSW 25.3 mph 29.9 mph N/A   Clear
3:35 PM 55.4 °F - 23.0 °F 29% 29.92 in 10.0 mi SW 24.2 mph 28.8 mph N/A   Clear
3:55 PM 53.6 °F - 24.8 °F 33% 29.92 in 10.0 mi SW 21.9 mph 28.8 mph N/A   Clear
4:15 PM 53.6 °F - 24.8 °F 33% 29.93 in 10.0 mi WSW 16.1 mph 24.2 mph N/A   Clear
4:35 PM 51.8 °F - 24.8 °F 35% 29.93 in 10.0 mi WSW 15.0 mph - N/A   Clear
4:55 PM 50.0 °F - 24.8 °F 37% 29.94 in 10.0 mi SW 11.5 mph - N/A   Clear
5:15 PM 48.2 °F - 24.8 °F 40% 29.94 in 10.0 mi SSW 8.1 mph - N/A   Clear
5:35 PM 44.6 °F 41.4 °F 24.8 °F 46% 29.93 in 10.0 mi SSE 5.8 mph - N/A   Partly Cloudy
5:55 PM 41.0 °F 35.2 °F 24.8 °F 53% 29.92 in 10.0 mi East 9.2 mph - N/A   Clear
6:15 PM 42.8 °F 38.0 °F 26.6 °F 53% 29.91 in 10.0 mi ENE 8.1 mph - N/A   Clear
6:35 PM 42.8 °F 38.0 °F 26.6 °F 53% 29.91 in 10.0 mi ENE 8.1 mph - N/A   Clear
6:55 PM 41.0 °F 37.1 °F 26.6 °F 57% 29.91 in 10.0 mi ESE 5.8 mph - N/A   Mostly Cloudy
7:15 PM 44.6 °F 42.2 °F 28.4 °F 53% 29.91 in 10.0 mi SE 4.6 mph - N/A Thunderstorm Overcast
7:35 PM 42.8 °F 39.3 °F 28.4 °F 57% 29.95 in 10.0 mi West 5.8 mph - N/A   Overcast
7:55 PM 39.2 °F 31.2 °F 33.8 °F 81% 30.00 in 5.0 mi West 13.8 mph 36.8 mph 0.05 in Thunderstorm Overcast
8:15 PM 39.2 °F 34.2 °F 35.6 °F 87% 29.99 in 10.0 mi WSW 6.9 mph - 0.06 in   Overcast
8:35 PM 39.2 °F 33.0 °F 35.6 °F 87% 29.96 in 9.0 mi ESE 9.2 mph - 0.11 in   Overcast
8:55 PM 39.2 °F 30.8 °F 35.6 °F 87% 29.95 in 10.0 mi ESE 15.0 mph - 0.13 in   Overcast
9:15 PM 37.4 °F 29.3 °F 33.8 °F 87% 29.93 in 9.0 mi ESE 12.7 mph - 0.04 in   Overcast
9:35 PM 37.4 °F 30.8 °F 33.8 °F 87% 29.96 in 9.0 mi SE 9.2 mph - 0.05 in   Overcast
9:55 PM 37.4 °F 30.8 °F 33.8 °F 87% 29.96 in 7.0 mi SE 9.2 mph - 0.09 in   Overcast
10:15 PM 37.4 °F 32.8 °F 33.8 °F 87% 29.96 in 10.0 mi NNW 5.8 mph - N/A   Overcast
10:35 PM 37.4 °F 32.8 °F 33.8 °F 87% 29.95 in 10.0 mi North 5.8 mph - 0.02 in   Overcast
10:55 PM 35.6 °F 29.9 °F 33.8 °F 93% 29.96 in 5.0 mi NNW 6.9 mph - 0.04 in   Overcast
11:15 PM 35.6 °F 31.7 °F 33.8 °F 93% 29.95 in 4.0 mi NE 4.6 mph - 0.03 in   Mostly Cloudy
11:35 PM 37.4 °F 29.8 °F 33.8 °F 87% 29.93 in 8.0 mi ESE 11.5 mph - 0.05 in   Overcast
11:55 PM 37.4 °F 32.8 °F 33.8 °F 87% 29.93 in 10.0 mi ESE 5.8 mph - 0.05 in   Overcast